Regional Weather Roundup
Issued by NWS

Home | Current Version | Previous Version | Graphics & Text | Print | Product List | Glossary Off
Versions: 1 2 3 4 5 6 7 8 9 10 11 12 13 14 15 16 17 18 19 20 21 22 23 24 25 26 27 28 29 30 31 32 33 34 35 36 37 38 39 40 41 42 43 44 45 46 47 48 49 50

000
ASUS43 KMPX 301010
RWRMN
WEATHER ROUNDUP FOR MINNESOTA
NATIONAL WEATHER SERVICE TWIN CITIES/CHANHASSEN MN
500 AM CDT SAT AUG 30 2014


NOTE: "FAIR" INDICATES FEW OR NO CLOUDS BELOW 12,000 FEET WITH NO
SIGNIFICANT WEATHER AND/OR OBSTRUCTIONS TO VISIBILITY. N/A MEANS
CURRENT SKY AND/OR WEATHER CONDITIONS ARE NOT AVAILABLE.

MNZ060>063-068>070-301100-
   Twin Cities Metro

CITY           SKY/WX    TMP DP  RH WIND       PRES   REMARKS
TWIN CITIES    CLOUDY    68  67  96 N7        29.77R
ST PAUL        CLOUDY    68  66  93 N8        29.77R
CRYSTAL        CLOUDY    68  65  90 NW6       29.77R
BLAINE         CLOUDY    68  68 100 NW5       29.78R
LAKEVILLE      CLOUDY    66  66 100 NW5       29.77S FOG
EDEN PRAIRIE   CLOUDY    68  67  96 NW7       29.77R
SOUTH ST PAUL  CLOUDY    68  67  94 NW6       29.76S
LAKE ELMO      CLOUDY    66  66 100 N6        29.78R
$$
MNZ001>005-007-008-013>017-022>024-027-028-301100-
   Northwest Minnesota

CITY           SKY/WX    TMP DP  RH WIND       PRES   REMARKS
BEMIDJI        CLOUDY    57  55  90 N9        29.88S
HALLOCK        CLEAR     45  43  93 N3        29.95S
ROSEAU         CLEAR     48  45  87 N3        29.93S
WARROAD        CLEAR     50  46  87 NW5       29.93S
THIEF RVR FALL CLEAR     52  48  87 N9        29.92S
CROOKSTON      CLEAR     50  48  93 N7        29.94R
FOSSTON        CLOUDY    55  54  94 N8        29.90S
DETROIT LAKES  CLOUDY    59  55  88 N6        29.89S
MOORHEAD       CLOUDY    57  57 100 N10       29.91R
PARK RAPIDS    CLOUDY    59  57  93 N10       29.86R
MAHNOMEN       CLOUDY    57  56  97 N9        29.89R
$$
MNZ006-009>011-018-025>026-301100-
   North Central Minnesota

CITY           SKY/WX    TMP DP  RH WIND       PRES   REMARKS
BAUDETTE       PTCLDY    54  53  97 N7        29.91R
FLAG ISLAND    CLEAR     57  54  88 N12       29.91S
INTL FALLS     CLOUDY    58  55  90 NE10      29.88R
WASKISH        CLOUDY    57  55  94 N7        29.89R
BIG FORK       CLOUDY    57  55  94 N7        29.87R
LONGVILLE      CLOUDY    61  61 100 N8        29.84R FOG
GRAND RAPIDS   CLOUDY    64  61  88 N6        29.83S
CRANE LAKE     CLOUDY    57  55  94 N7        29.87S
ORR            CLOUDY    57  55  94 CALM      29.83S
COOK           CLOUDY    61  59  94 N5        29.84S
WALKER         CLOUDY    57  56  98 CALM      29.86R
$$
MNZ012-019>021-037-301100-
   Northeast Minnesota

CITY           SKY/WX    TMP DP  RH WIND       PRES   REMARKS
DULUTH         MOCLDY    61  58  90 N6        29.80F
ELY            CLOUDY    59  57  94 CALM      29.83S
HIBBING        CLOUDY    62  60  93 N3        29.82S
EVELETH        MOCLDY    57  55  94 CALM      29.83S
DULUTH HARBOR  CLOUDY    63  61  94 NE3       29.80S FOG
TWO HARBORS    CLOUDY    57  54  88 CALM      29.79S
SILVER BAY     CLOUDY    55  55 100 CALM      29.79S
GRAND MARAIS     N/A     57  55  93 N3        29.78S
G MARAIS ARPRT MOCLDY    54  52  94 N5        29.82F
$$
MNZ029>031-032-039>041-046>048-054>057-064-301100-
   West Central Minnesota

CITY           SKY/WX    TMP DP  RH WIND       PRES   REMARKS
FERGUS FALLS   CLOUDY    61  59  94 N8        29.87R
WHEATON        CLOUDY    57  55  94 NW13      29.90R
MORRIS         FOG       61  61 100 NW10      29.85S VSB 1/4
ALEXANDRIA     CLOUDY    66  64  93 NW7       29.86R
ELBOW LAKE     CLOUDY    61  60  99 N10       29.86R
WADENA         CLOUDY    61  61 100 N8        29.85R
GLENWOOD       PTCLDY    66  64  94 NW7       29.85R
APPLETON       CLOUDY    63  61  94 NW8       29.86R
BENSON         CLOUDY    63  61  94 N13       29.85S FOG
ORTONVILLE     CLOUDY    61  57  88 NW8       29.87S
MADISON        CLEAR     64  63  94 NW7       29.87S
WILLMAR        CLOUDY    66  64  94 NW9       29.85R
$$
MNZ033>034-036-042>043-049>051-058-059-301100-
   Central Minnesota

CITY           SKY/WX    TMP DP  RH WIND       PRES   REMARKS
ST CLOUD       FOG       66  65  96 NW5       29.81R VSB 3/4
SAUK CENTRE    CLOUDY    64  64 100 NW6       29.83R
PAYNESVILLE    HVY RAIN  62  62 100 CALM      29.83R
AITKIN         CLOUDY    64  59  82 CALM      29.81S HAZE
PINE RIVER     CLOUDY    63  63 100 N9        29.87R FOG
BRAINERD       CLOUDY    64  64 100 CALM      29.83R FOG
STAPLES        CLOUDY    63  63 100 N5        29.84R
LONG PRAIRIE   CLOUDY    63  63 100 N5        29.84R
LITTLE FALLS   CLOUDY    63  61  94 CALM      29.82S FOG
LITCHFIELD     MOCLDY    66  66 100 NW3       29.82S
BUFFALO        CLOUDY    67  64  90 N3        29.81R
MAPLE LAKE     MOCLDY    67  66  97 NW5       29.82R
$$
MNZ037-044-045-052-053-301100-
   East Central Minnesota

CITY           SKY/WX    TMP DP  RH WIND       PRES   REMARKS
PRINCETON      CLOUDY    66  64  94 NW5       29.81R
MORA           MOCLDY    63  63 100 CALM      29.82S
CAMBRIDGE      PTCLDY    66  59  77 NW5       29.78S
RUSH CITY      CLOUDY    64  63  94 N6        29.79S
MOOSE LAKE     CLOUDY    61  61 100 N3        29.80R FOG
HINCKLEY       CLOUDY    63  63 100 NW5       29.80R
CLOQUET        CLOUDY    61  59  94 NW3       29.82R
MCGREGOR       CLOUDY    63  61  94 CALM      29.82S VSB 1/2
$$
MNZ071>073-080-081-089-090-097-098-301100-
   Southwest Minnesota

CITY           SKY/WX    TMP DP  RH WIND       PRES   REMARKS
MONTEVIDEO     CLOUDY    63  63 100 N8        29.86S FOG
GRANITE FALLS  CLOUDY    63  63 100 W10G16    29.87R FOG
CANBY          CLOUDY    61  60  97 NW10      29.89S FOG
MARSHALL       CLOUDY    63  59  88 NW12      29.85S
REDWOOD FALLS  CLOUDY    66  65  96 NW8       29.82R FOG
OLIVIA         CLOUDY    68  64  88 NW8       29.83R
PIPESTONE      CLOUDY    64  63  94 N6        29.88R
WINDOM         MOCLDY    64  64 100 NW9       29.85R
WORTHINGTON    CLOUDY    64  64 100 NW6       29.87S
JACKSON        MOCLDY    64  63  94 NW6       29.85R
TRACY          FOG       64  64  98 NW9       29.87R VSB 3/4
SLAYTON        FOG       64  64 100 NW9       29.88R VSB 1
$$
MNZ065>067-074>077-082>085-091>093-301100-
   South Central Minnesota

CITY           SKY/WX    TMP DP  RH WIND       PRES   REMARKS
MANKATO        CLOUDY    66  63  88 NW9       29.80R
NEW ULM        CLEAR     64  64 100 NW3       29.81S
ST JAMES       CLOUDY    66  64  94 W7        29.83R FOG
FAIRMONT       CLOUDY    63  57  82 NW9       29.82R
GLENCOE        CLOUDY    68  65  91 NW5       29.80R FOG
FARIBAULT      CLOUDY    70  64  83 CALM      29.79R
OWATONNA       CLOUDY    66  64  94 N3        29.78R
WASECA         CLOUDY    64  63  94 NW5       29.80R FOG
ALBERT LEA     DRIZZLE   66  66 100 W5        29.78R
$$
MNZ078>079-086>088-094>096-301100-
   Southeast Minnesota

CITY           SKY/WX    TMP DP  RH WIND       PRES   REMARKS
ROCHESTER      LGT RAIN  66  65  96 NW8       29.77S
RED WING       DRIZZLE   66  64  94 CALM      29.75S
STANTON        CLOUDY    67  65  93 CALM      29.76S
DODGE CENTER   CLOUDY    66  64  94 NW8       29.77S
WINONA         CLOUDY    70  68  94 CALM      29.74S
AUSTIN         CLOUDY    64  64 100 W5        29.77S
PRESTON        CLOUDY    65  65 100 CALM      29.77S FOG
$$
ABBREVIATIONS USED IN REMARKS
   TC - TEMPERATURES IN CELSIUS
  WCI - WIND CHILL INDEX
   HX - HEAT INDEX
  VSB - VISIBILITY
$$


USA.gov is the U.S. government's official web portal to all federal, state and local government web resources and services.